K5ERO-13 Weather Reports


time (UTC)temp
C
wind
direction
speed
KPH
gust
KPH
rain 1hr
cm
rain 24hr
cm
rain mn
cm
humidity
%
barometer
mb
20260510183938 26 196 9.7 12.9 0.00 0.43 0.00 74 1016.3
20260510181928 26 191 1.6 6.4 0.00 0.51 0.00 72 1016.6
20260510180923 26 189 6.4 12.9 0.00 0.56 0.00 71 1017.0
20260510174914 26 141 4.8 11.3 0.00 0.66 0.00 69 1017.0
20260510170855 25 328 3.2 11.3 0.00 1.45 0.00 71 1017.3
20260510164845 26 326 11.3 16.1 0.00 1.78 0.00 72 1017.3
20260510162835 25 201 4.8 14.5 0.00 1.83 0.00 74 1017.3
20260510154817 23 144 1.6 16.1 0.00 2.74 0.00 78 1017.0
20260510124647 20 337 9.7 14.5 0.00 4.65 0.00 95 1016.3
20260510100532 18 272 0.0 3.2 0.00 4.65 0.00 95 1013.9
20260510092513 19 29 1.6 6.4 0.00 4.65 0.00 94 1013.9
20260510063401 19 342 3.2 9.7 0.00 4.65 0.00 95 1012.9
20260510055342 18 280 0.0 0.0 0.00 4.65 0.00 95 1013.2
20260510052325 18 188 1.6 3.2 0.00 4.65 0.00 96 1013.2
20260510043305 18 185 0.0 9.7 0.00 4.65 4.80 96 1013.6
20260510035247 18 243 0.0 4.8 0.00 4.65 4.80 96 1014.2
20260510031229 19 199 0.0 0.0 0.00 4.65 4.80 96 1014.2
20260510022206 19 212 0.0 3.2 0.00 4.65 4.80 96 1013.6
20260510013145 19 212 4.8 12.9 0.00 4.65 4.80 96 1013.6
20260510003118 19 174 1.6 6.4 0.08 4.65 4.80 96 1013.2
20260509234054 19 155 3.2 4.8 0.13 4.65 4.80 96 1013.6
20260509223023 19 191 0.0 0.0 0.03 4.70 4.65 96 1013.2
20260509221013 19 216 0.0 4.8 0.03 4.72 4.65 96 1012.6
20260509215004 19 178 0.0 4.8 0.03 4.80 4.65 96 1012.6
20260509212955 19 184 3.2 14.5 0.00 5.16 4.62 96 1012.6
20260509201921 18 198 1.6 1.6 0.18 8.13 4.60 96 1013.2
20260509194908 18 183 3.2 4.8 0.08 8.03 4.50 96 1013.2